BAW909 EDDF-EGLL

Flight info

Callsign BAW909
Flight time 1h 7m
Altitude 36000
Route OBOKA5G/25C OBOKA Z29 TORNU DCT BREDA DCT ABNED L980 LOGAN
Aircraft B772/H-SDE2E3FGHIJ5LORVWXY/LB1D1

Departure

Time 2026-05-05 16:58
Airport Frankfurt Main Airport (EDDF)

Arrival

Time 2026-05-05 18:06
Airport London Heathrow Airport (EGLL)
Time Latitude Longitude Altitude Speed Heading
2026-05-05 16:28 50.05018 8.58537 364 ft 0 kts 339°
2026-05-05 16:44 50.05016 8.58538 364 ft 2 kts 340°
2026-05-05 16:45 50.04992 8.58551 365 ft 4 kts 340°
2026-05-05 16:45 50.04967 8.58566 366 ft 4 kts 340°
2026-05-05 16:45 50.04947 8.58576 364 ft 4 kts 356°
2026-05-05 16:45 50.04931 8.58573 364 ft 4 kts 49°
2026-05-05 16:46 50.04919 8.58541 365 ft 3 kts 69°
2026-05-05 16:46 50.04913 8.58512 366 ft 0 kts 69°
2026-05-05 16:50 50.04919 8.58538 365 ft 6 kts 69°
2026-05-05 16:51 50.04933 8.58611 369 ft 7 kts 86°
2026-05-05 16:51 50.04904 8.58673 369 ft 7 kts 149°
2026-05-05 16:51 50.04874 8.58692 371 ft 1 kts 160°
2026-05-05 16:51 50.04854 8.58703 370 ft 5 kts 160°
2026-05-05 16:52 50.04819 8.58723 370 ft 5 kts 160°
2026-05-05 16:52 50.04797 8.58736 372 ft 3 kts 160°
2026-05-05 16:52 50.04773 8.58749 376 ft 5 kts 160°
2026-05-05 16:52 50.04737 8.58766 376 ft 5 kts 168°
2026-05-05 16:53 50.04699 8.58767 376 ft 6 kts 184°
2026-05-05 16:53 50.04658 8.58760 375 ft 5 kts 186°
2026-05-05 16:53 50.04645 8.58758 375 ft 0 kts 186°
2026-05-05 16:54 50.04644 8.58758 375 ft 0 kts 187°
2026-05-05 16:55 50.04628 8.58754 375 ft 4 kts 192°
2026-05-05 16:55 50.04591 8.58723 378 ft 10 kts 215°
2026-05-05 16:56 50.04531 8.58666 378 ft 6 kts 189°
2026-05-05 16:56 50.04501 8.58651 381 ft 3 kts 227°
2026-05-05 16:56 50.04498 8.58636 377 ft 0 kts 252°
2026-05-05 16:57 50.04497 8.58633 376 ft 0 kts 250°
2026-05-05 16:58 50.04471 8.58520 378 ft 33 kts 250°
2026-05-05 16:58 50.04306 8.57828 371 ft 103 kts 249°
2026-05-05 16:58 50.03985 8.56486 391 ft 157 kts 250°
2026-05-05 16:58 50.03592 8.54833 967 ft 166 kts 250°
2026-05-05 16:59 50.03193 8.53092 1583 ft 176 kts 252°
2026-05-05 16:59 50.02769 8.51171 1842 ft 195 kts 258°
2026-05-05 16:59 50.02739 8.49000 2015 ft 211 kts 278°
2026-05-05 16:59 50.02919 8.46601 2175 ft 236 kts 277°
2026-05-05 17:00 50.03043 8.43968 2487 ft 250 kts 266°
2026-05-05 17:00 50.02766 8.41249 3038 ft 259 kts 258°
2026-05-05 17:00 50.02387 8.38493 3747 ft 261 kts 258°
2026-05-05 17:00 50.02022 8.35716 4479 ft 263 kts 258°
2026-05-05 17:01 50.01670 8.32910 5163 ft 266 kts 257°
2026-05-05 17:01 50.01328 8.30082 5856 ft 266 kts 259°
2026-05-05 17:01 50.01434 8.27188 6354 ft 276 kts 286°
2026-05-05 17:01 50.02218 8.24443 6859 ft 280 kts 292°
2026-05-05 17:02 50.03044 8.21686 7500 ft 281 kts 291°
2026-05-05 17:02 50.03858 8.18922 8198 ft 281 kts 291°
2026-05-05 17:02 50.04669 8.16145 8838 ft 282 kts 290°
2026-05-05 17:02 50.05481 8.13354 9471 ft 285 kts 290°
2026-05-05 17:03 50.06442 8.10644 9996 ft 291 kts 301°
2026-05-05 17:03 50.07711 8.08062 10168 ft 312 kts 305°
2026-05-05 17:03 50.09145 8.05378 10414 ft 330 kts 306°
2026-05-05 17:03 50.10641 8.02596 10922 ft 340 kts 306°
2026-05-05 17:04 50.12123 7.99683 11588 ft 346 kts 304°
2026-05-05 17:04 50.13580 7.96676 12440 ft 349 kts 303°
2026-05-05 17:04 50.15039 7.93631 13352 ft 352 kts 303°
2026-05-05 17:04 50.16493 7.90587 14166 ft 357 kts 303°
2026-05-05 17:05 50.17986 7.87470 14966 ft 361 kts 304°
2026-05-05 17:05 50.19494 7.84328 15753 ft 364 kts 304°
2026-05-05 17:05 50.21026 7.81140 16529 ft 368 kts 304°
2026-05-05 17:05 50.22571 7.77926 17300 ft 372 kts 303°
2026-05-05 17:06 50.24135 7.74674 18057 ft 377 kts 304°
2026-05-05 17:06 50.25720 7.71377 18743 ft 381 kts 303°
2026-05-05 17:06 50.27318 7.68049 19469 ft 384 kts 303°
2026-05-05 17:06 50.28926 7.64699 20204 ft 387 kts 303°
2026-05-05 17:07 50.30545 7.61321 20935 ft 389 kts 303°
2026-05-05 17:07 50.32176 7.57915 21648 ft 393 kts 303°
2026-05-05 17:07 50.33819 7.54479 22358 ft 396 kts 303°
2026-05-05 17:07 50.35471 7.51017 23049 ft 399 kts 303°
2026-05-05 17:08 50.37139 7.47519 23669 ft 403 kts 303°
2026-05-05 17:08 50.38821 7.43984 24239 ft 406 kts 303°
2026-05-05 17:08 50.40516 7.40419 24808 ft 410 kts 303°
2026-05-05 17:08 50.42223 7.36822 25345 ft 413 kts 302°
2026-05-05 17:09 50.43946 7.33189 25903 ft 417 kts 302°
2026-05-05 17:09 50.45680 7.29526 26413 ft 420 kts 302°
2026-05-05 17:09 50.47430 7.25824 26948 ft 424 kts 302°
2026-05-05 17:09 50.49191 7.22093 27455 ft 427 kts 301°
2026-05-05 17:10 50.50944 7.18375 27938 ft 431 kts 301°
2026-05-05 17:10 50.52732 7.14577 28410 ft 434 kts 301°
2026-05-05 17:10 50.54533 7.10746 28881 ft 437 kts 301°
2026-05-05 17:10 50.56344 7.06888 29332 ft 440 kts 301°
2026-05-05 17:11 50.58167 7.02998 29735 ft 443 kts 301°
2026-05-05 17:11 50.60003 6.99075 30083 ft 447 kts 301°
2026-05-05 17:11 50.61853 6.95115 30415 ft 450 kts 301°
2026-05-05 17:11 50.63711 6.91135 30766 ft 452 kts 301°
2026-05-05 17:12 50.65577 6.87133 31119 ft 454 kts 301°
2026-05-05 17:12 50.66845 6.84409 31331 ft 456 kts 301°
2026-05-05 17:12 50.68724 6.80366 31638 ft 459 kts 301°
2026-05-05 17:12 50.70613 6.76294 31934 ft 461 kts 301°
2026-05-05 17:13 50.72512 6.72196 32229 ft 463 kts 301°
2026-05-05 17:13 50.74417 6.68077 32499 ft 466 kts 301°
2026-05-05 17:13 50.76304 6.63992 32755 ft 468 kts 301°
2026-05-05 17:13 50.78227 6.59823 33004 ft 470 kts 301°
2026-05-05 17:14 50.80154 6.55638 33281 ft 472 kts 301°
2026-05-05 17:14 50.82084 6.51438 33596 ft 472 kts 301°
2026-05-05 17:14 50.84013 6.47238 33955 ft 471 kts 301°
2026-05-05 17:14 50.85936 6.43044 34276 ft 471 kts 301°
2026-05-05 17:15 50.87857 6.38848 34589 ft 471 kts 301°
2026-05-05 17:15 50.89775 6.34647 34868 ft 471 kts 301°
2026-05-05 17:15 50.91694 6.30440 35167 ft 471 kts 301°
2026-05-05 17:15 50.93609 6.26233 35460 ft 470 kts 301°
2026-05-05 17:16 50.95517 6.22033 35767 ft 470 kts 301°
2026-05-05 17:16 50.97437 6.17800 35815 ft 474 kts 301°
2026-05-05 17:16 51.01281 6.09306 35850 ft 472 kts 301°
2026-05-05 17:17 51.05085 6.00881 35861 ft 469 kts 301°
2026-05-05 17:17 51.08882 5.92436 35866 ft 470 kts 301°
2026-05-05 17:18 51.12676 5.83967 35861 ft 471 kts 301°
2026-05-05 17:18 51.16473 5.75469 35862 ft 471 kts 301°
2026-05-05 17:19 51.20267 5.66950 35866 ft 471 kts 301°
2026-05-05 17:19 51.24055 5.58418 35879 ft 471 kts 301°
2026-05-05 17:20 51.27837 5.49868 35878 ft 471 kts 301°
2026-05-05 17:20 51.31613 5.41305 35885 ft 471 kts 301°
2026-05-05 17:21 51.35380 5.32734 35889 ft 471 kts 301°
2026-05-05 17:22 51.41021 5.19844 35886 ft 471 kts 301°
2026-05-05 17:22 51.44773 5.11236 35887 ft 471 kts 301°
2026-05-05 17:23 51.48520 5.02608 35890 ft 471 kts 301°
2026-05-05 17:23 51.52265 4.93961 35901 ft 472 kts 301°
2026-05-05 17:24 51.55649 4.84961 35895 ft 469 kts 291°
2026-05-05 17:24 51.57916 4.75187 35894 ft 467 kts 283°
2026-05-05 17:25 51.59672 4.65132 35890 ft 467 kts 282°
2026-05-05 17:25 51.61413 4.55049 35886 ft 468 kts 283°
2026-05-05 17:26 51.63179 4.44961 35886 ft 469 kts 283°
2026-05-05 17:26 51.64953 4.34861 35884 ft 469 kts 283°
2026-05-05 17:27 51.66722 4.24756 35886 ft 469 kts 283°
2026-05-05 17:27 51.68480 4.14643 35886 ft 469 kts 283°
2026-05-05 17:28 51.70216 4.04600 35886 ft 468 kts 282°
2026-05-05 17:28 51.71954 3.94480 35890 ft 468 kts 282°
2026-05-05 17:29 51.73682 3.84362 35894 ft 468 kts 282°
2026-05-05 17:29 51.75403 3.74228 35897 ft 468 kts 282°
2026-05-05 17:30 51.77114 3.64096 35903 ft 468 kts 282°
2026-05-05 17:30 51.78816 3.53956 35903 ft 468 kts 282°
2026-05-05 17:31 51.80507 3.43817 35909 ft 468 kts 282°
2026-05-05 17:31 51.82191 3.33671 35915 ft 467 kts 282°
2026-05-05 17:32 51.83841 3.23512 35924 ft 466 kts 279°
2026-05-05 17:32 51.84526 3.13183 35925 ft 461 kts 268°
2026-05-05 17:33 51.84063 3.02905 35928 ft 457 kts 261°
2026-05-05 17:33 51.83337 2.92678 35929 ft 458 kts 261°
2026-05-05 17:33 51.82990 2.87618 35914 ft 446 kts 261°
2026-05-05 17:34 51.82665 2.82712 35908 ft 432 kts 261°
2026-05-05 17:34 51.82351 2.77939 35636 ft 425 kts 261°
2026-05-05 17:34 51.82042 2.73277 35243 ft 421 kts 261°
2026-05-05 17:34 51.81730 2.68604 34871 ft 417 kts 261°
2026-05-05 17:35 51.81417 2.63975 34482 ft 413 kts 260°
2026-05-05 17:35 51.81102 2.59379 34105 ft 409 kts 260°
2026-05-05 17:35 51.80788 2.54826 33673 ft 406 kts 260°
2026-05-05 17:35 51.80473 2.50308 33241 ft 403 kts 260°
2026-05-05 17:36 51.80161 2.45835 32847 ft 399 kts 260°
2026-05-05 17:36 51.79850 2.41408 32457 ft 395 kts 260°
2026-05-05 17:36 51.79542 2.37024 32075 ft 391 kts 260°
2026-05-05 17:36 51.79235 2.32688 31690 ft 387 kts 260°
2026-05-05 17:37 51.78930 2.28387 31317 ft 384 kts 260°
2026-05-05 17:37 51.78728 2.25557 31076 ft 382 kts 260°
2026-05-05 17:37 51.78334 2.19891 30577 ft 378 kts 261°
2026-05-05 17:37 51.78081 2.15688 30210 ft 375 kts 262°
2026-05-05 17:38 51.77843 2.11508 29825 ft 372 kts 262°
2026-05-05 17:38 51.77607 2.07361 29404 ft 370 kts 262°
2026-05-05 17:38 51.77368 2.03238 29006 ft 367 kts 262°
2026-05-05 17:38 51.77128 1.99151 28602 ft 365 kts 262°
2026-05-05 17:39 51.76886 1.95092 28204 ft 362 kts 262°
2026-05-05 17:39 51.76643 1.91053 27816 ft 360 kts 262°
2026-05-05 17:39 51.76400 1.87049 27425 ft 358 kts 262°
2026-05-05 17:39 51.76156 1.83044 27038 ft 357 kts 262°
2026-05-05 17:40 51.75912 1.79066 26652 ft 355 kts 262°
2026-05-05 17:40 51.75668 1.75102 26267 ft 354 kts 262°
2026-05-05 17:40 51.75423 1.71155 25886 ft 353 kts 262°
2026-05-05 17:40 51.75178 1.67218 25508 ft 352 kts 262°
2026-05-05 17:41 51.74935 1.63346 25135 ft 351 kts 262°
2026-05-05 17:41 51.74686 1.59421 24685 ft 353 kts 263°
2026-05-05 17:41 51.74431 1.55456 24178 ft 357 kts 263°
2026-05-05 17:41 51.74171 1.51450 23644 ft 361 kts 263°
2026-05-05 17:42 51.73907 1.47392 23025 ft 366 kts 263°
2026-05-05 17:42 51.73640 1.43301 22418 ft 368 kts 263°
2026-05-05 17:42 51.73366 1.39125 21453 ft 383 kts 264°
2026-05-05 17:42 51.73073 1.34682 20818 ft 414 kts 264°
2026-05-05 17:43 51.72762 1.29982 20210 ft 423 kts 264°
2026-05-05 17:43 51.72448 1.25271 19583 ft 422 kts 264°
2026-05-05 17:43 51.72133 1.20565 18980 ft 421 kts 264°
2026-05-05 17:43 51.71817 1.15880 18379 ft 419 kts 264°
2026-05-05 17:44 51.71500 1.11217 17739 ft 418 kts 264°
2026-05-05 17:44 51.71184 1.06573 17075 ft 416 kts 264°
2026-05-05 17:44 51.70868 1.01961 16423 ft 411 kts 264°
2026-05-05 17:44 51.70553 0.97406 15787 ft 407 kts 264°
2026-05-05 17:45 51.70240 0.92896 15162 ft 403 kts 264°
2026-05-05 17:45 51.69929 0.88429 14553 ft 399 kts 264°
2026-05-05 17:45 51.69620 0.84000 13949 ft 396 kts 264°
2026-05-05 17:45 51.69313 0.79611 13335 ft 392 kts 264°
2026-05-05 17:46 51.69008 0.75277 12793 ft 387 kts 264°
2026-05-05 17:46 51.68705 0.70997 12258 ft 381 kts 264°
2026-05-05 17:46 51.68404 0.66780 11753 ft 376 kts 264°
2026-05-05 17:46 51.68106 0.62618 11252 ft 372 kts 264°
2026-05-05 17:47 51.67809 0.58495 10758 ft 368 kts 264°
2026-05-05 17:47 51.67515 0.54423 10272 ft 364 kts 264°
2026-05-05 17:47 51.67222 0.50402 9905 ft 357 kts 264°
2026-05-05 17:47 51.66936 0.46486 9644 ft 347 kts 264°
2026-05-05 17:48 51.66656 0.42679 9362 ft 338 kts 264°
2026-05-05 17:48 51.66381 0.38968 9080 ft 329 kts 264°
2026-05-05 17:48 51.66113 0.35354 8808 ft 321 kts 264°
2026-05-05 17:48 51.65850 0.31824 8549 ft 313 kts 265°
2026-05-05 17:49 51.65595 0.28399 8393 ft 303 kts 265°
2026-05-05 17:49 51.65349 0.25094 8247 ft 293 kts 265°
2026-05-05 17:49 51.65112 0.21936 8103 ft 283 kts 265°
2026-05-05 17:49 51.64874 0.18782 8013 ft 278 kts 265°
2026-05-05 17:50 51.64641 0.15705 7968 ft 276 kts 265°
2026-05-05 17:50 51.64429 0.12677 7937 ft 278 kts 266°
2026-05-05 17:50 51.64222 0.09564 7934 ft 279 kts 266°
2026-05-05 17:50 51.64019 0.06459 7944 ft 279 kts 266°
2026-05-05 17:51 51.63818 0.03353 7943 ft 279 kts 266°
2026-05-05 17:51 51.63618 0.00250 7938 ft 279 kts 266°
2026-05-05 17:51 51.63416 -0.02858 7935 ft 279 kts 266°
2026-05-05 17:51 51.63216 -0.05961 7939 ft 279 kts 266°
2026-05-05 17:52 51.63016 -0.09061 7999 ft 278 kts 266°
2026-05-05 17:52 51.62815 -0.12157 8005 ft 278 kts 266°
2026-05-05 17:52 51.62615 -0.15253 8020 ft 278 kts 266°
2026-05-05 17:52 51.62415 -0.18344 8023 ft 278 kts 266°
2026-05-05 17:53 51.62214 -0.21436 8023 ft 278 kts 266°
2026-05-05 17:53 51.62014 -0.24534 8018 ft 278 kts 266°
2026-05-05 17:53 51.61814 -0.27630 8024 ft 278 kts 266°
2026-05-05 17:53 51.61615 -0.30722 8020 ft 278 kts 266°
2026-05-05 17:54 51.61416 -0.33819 7935 ft 278 kts 266°
2026-05-05 17:54 51.61217 -0.36916 7944 ft 279 kts 266°
2026-05-05 17:54 51.61020 -0.40019 7941 ft 280 kts 266°
2026-05-05 17:54 51.60820 -0.43133 7945 ft 280 kts 266°
2026-05-05 17:55 51.60619 -0.46246 7940 ft 280 kts 266°
2026-05-05 17:55 51.60419 -0.49354 7932 ft 279 kts 266°
2026-05-05 17:55 51.60218 -0.52457 7929 ft 279 kts 266°
2026-05-05 17:55 51.60018 -0.55553 7931 ft 278 kts 266°
2026-05-05 17:56 51.59817 -0.58642 7934 ft 278 kts 265°
2026-05-05 17:56 51.59617 -0.61726 7939 ft 277 kts 266°
2026-05-05 17:56 51.59419 -0.64774 7943 ft 278 kts 265°
2026-05-05 17:56 51.59219 -0.67856 7839 ft 276 kts 265°
2026-05-05 17:57 51.59019 -0.70925 7496 ft 276 kts 265°
2026-05-05 17:57 51.58820 -0.73993 7128 ft 276 kts 265°
2026-05-05 17:57 51.58621 -0.77056 6792 ft 275 kts 266°
2026-05-05 17:57 51.58424 -0.80107 6455 ft 274 kts 265°
2026-05-05 17:58 51.58223 -0.83155 6097 ft 274 kts 265°
2026-05-05 17:58 51.58023 -0.86195 5759 ft 272 kts 264°
2026-05-05 17:58 51.57481 -0.89084 5268 ft 276 kts 239°
2026-05-05 17:58 51.56148 -0.91288 4903 ft 278 kts 211°
2026-05-05 17:59 51.54350 -0.92271 4626 ft 271 kts 187°
2026-05-05 17:59 51.52512 -0.92493 4551 ft 260 kts 181°
2026-05-05 17:59 51.50788 -0.92207 4405 ft 244 kts 157°
2026-05-05 17:59 51.49462 -0.90721 4298 ft 226 kts 128°
2026-05-05 18:00 51.48541 -0.88730 4294 ft 219 kts 122°
2026-05-05 18:00 51.47994 -0.87358 4284 ft 212 kts 114°
2026-05-05 18:00 51.47669 -0.85149 4240 ft 204 kts 90°
2026-05-05 18:00 51.47641 -0.82871 4209 ft 200 kts 88°
2026-05-05 18:01 51.47634 -0.80733 4023 ft 191 kts 87°
2026-05-05 18:01 51.47638 -0.78620 3785 ft 184 kts 86°
2026-05-05 18:01 51.47645 -0.76609 3537 ft 177 kts 86°
2026-05-05 18:01 51.47652 -0.74710 3315 ft 168 kts 86°
2026-05-05 18:02 51.47659 -0.72872 3100 ft 162 kts 86°
2026-05-05 18:02 51.47667 -0.71064 2891 ft 163 kts 86°
2026-05-05 18:02 51.47674 -0.69232 2677 ft 165 kts 86°
2026-05-05 18:02 51.47681 -0.67404 2441 ft 163 kts 86°
2026-05-05 18:03 51.47687 -0.65587 2218 ft 163 kts 86°
2026-05-05 18:03 51.47694 -0.63778 1987 ft 160 kts 86°
2026-05-05 18:03 51.47700 -0.61999 1793 ft 161 kts 86°
2026-05-05 18:03 51.47706 -0.60187 1567 ft 162 kts 86°
2026-05-05 18:04 51.47713 -0.58388 1343 ft 158 kts 87°
2026-05-05 18:04 51.47719 -0.56693 1127 ft 146 kts 86°
2026-05-05 18:04 51.47724 -0.55100 959 ft 143 kts 87°
2026-05-05 18:04 51.47730 -0.53508 749 ft 143 kts 86°
2026-05-05 18:05 51.47736 -0.51910 538 ft 144 kts 86°
2026-05-05 18:05 51.47740 -0.50307 350 ft 144 kts 87°
2026-05-05 18:05 51.47749 -0.48727 168 ft 141 kts 86°
2026-05-05 18:05 51.47758 -0.47192 94 ft 127 kts 90°
2026-05-05 18:06 51.47759 -0.46069 94 ft 74 kts 90°
2026-05-05 18:06 51.47762 -0.45649 89 ft 41 kts 89°
2026-05-05 18:06 51.47663 -0.45469 91 ft 13 kts 180°
2026-05-05 18:06 51.47609 -0.45502 92 ft 9 kts 236°
2026-05-05 18:07 51.47596 -0.45599 95 ft 11 kts 267°
2026-05-05 18:07 51.47595 -0.45730 94 ft 12 kts 270°
2026-05-05 18:07 51.47595 -0.45863 94 ft 12 kts 270°
2026-05-05 18:07 51.47595 -0.45996 94 ft 12 kts 270°
2026-05-05 18:08 51.47594 -0.46139 94 ft 15 kts 269°
2026-05-05 18:08 51.47593 -0.46315 94 ft 16 kts 270°
2026-05-05 18:08 51.47592 -0.46503 91 ft 17 kts 269°
2026-05-05 18:08 51.47591 -0.46707 91 ft 20 kts 269°
2026-05-05 18:09 51.47581 -0.46924 95 ft 19 kts 268°
2026-05-05 18:09 51.47582 -0.47142 95 ft 20 kts 270°
2026-05-05 18:09 51.47581 -0.47359 94 ft 20 kts 270°
2026-05-05 18:09 51.47581 -0.47577 94 ft 19 kts 270°
2026-05-05 18:10 51.47580 -0.47789 94 ft 11 kts 269°
2026-05-05 18:10 51.47550 -0.47875 91 ft 10 kts 201°
2026-05-05 18:10 51.47483 -0.47877 91 ft 10 kts 179°
2026-05-05 18:10 51.47416 -0.47875 91 ft 10 kts 179°
2026-05-05 18:11 51.47348 -0.47875 91 ft 10 kts 179°
2026-05-05 18:11 51.47281 -0.47874 93 ft 10 kts 179°
2026-05-05 18:11 51.47213 -0.47873 93 ft 10 kts 179°
2026-05-05 18:11 51.47146 -0.47873 91 ft 10 kts 180°
2026-05-05 18:12 51.47079 -0.47873 91 ft 10 kts 180°
2026-05-05 18:12 51.47011 -0.47872 91 ft 10 kts 178°
2026-05-05 18:12 51.46984 -0.47797 94 ft 7 kts 92°
2026-05-05 18:12 51.46983 -0.47737 94 ft 4 kts 90°
2026-05-05 18:13 51.46983 -0.47724 94 ft 0 kts 90°
2026-05-05 18:13 51.46983 -0.47723 94 ft 0 kts 90°